Location: Caltech
(34.1382°N, 118.1253°W)
Time: 20:18:50
(UTC-07:00)

Cosmos 1975 - Visible Passes

Search period start: 23 April 2014 00:00
Search period end: 03 May 2014 00:00
Orbit: 556 x 576 km, 82.5° (Epoch: 23 April)

Date Brightness Start Highest point End Pass type
(mag) Time Alt. Az. Time Alt. Az. Time Alt. Az.
25 Apr 5.8 22:34:57 10° NNE 22:35:07 11° NNE 22:35:07 11° NNE visible
26 Apr 5.7 22:35:35 10° N 22:36:07 13° N 22:36:07 13° N visible
27 Apr 5.5 22:36:15 10° N 22:37:06 16° N 22:37:06 16° N visible
28 Apr 5.4 22:36:57 10° N 22:38:06 18° N 22:38:06 18° N visible
29 Apr 5.2 22:37:42 10° N 22:39:07 21° N 22:39:07 21° N visible
30 Apr 5.1 22:38:28 10° NNW 22:40:08 23° NNW 22:40:08 23° NNW visible
01 May 5.0 22:39:17 10° NNW 22:41:09 25° NNW 22:41:09 25° NNW visible
02 May 5.1 21:05:17 10° NE 21:06:08 12° ENE 21:06:08 12° ENE visible
02 May 5.0 22:40:08 10° NNW 22:42:12 25° NW 22:42:12 25° NW visible
